Regional Weather Roundup
Issued by NWS Northern Indiana

Home | Current Version | Previous Version | Graphics & Text | Print | Product List | Glossary On
Versions: 1 2 3 4 5 6 7 8 9 10 11 12 13 14 15 16 17 18 19 20 21 22 23 24 25 26 27 28 29 30 31 32 33 34 35 36 37 38 39 40 41 42 43 44 45 46 47 48 49 50
000
ASUS43 KIWX 231410
RWRIWX

KIWX WEATHER ROUNDUP
NATIONAL WEATHER SERVICE NORTHERN INDIANA
900 AM EST FRI FEB 23 2018

NOTE: "FAIR" INDICATES FEW OR NO CLOUDS BELOW 12,000 FEET WITH NO
SIGNIFICANT WEATHER AND/OR OBSTRUCTIONS TO VISIBILITY.

* THESE STATIONS ARE NOT UNDER NWS QUALITY CONTROL. THEY ALSO MAY NOT
  REPORT WEATHER SUCH AS PRECIPITATION OR FOG.

INZ001>027-231500-
NORTHERN INDIANA

CITY           SKY/WX    TMP DP  RH WIND       PRES   REMARKS
GARY*          CLOUDY    43  43 100 S7        30.11S
VALPARAISO     CLOUDY    41  40  96 S6        30.12S FOG
MICHIGAN CITY* CLOUDY    41  41 100 S8        30.11S
LAPORTE*       CLOUDY    39  39  98 S6        30.11S FOG
SOUTH BEND     CLOUDY    39  38  96 S7        30.12F
ELKHART*       CLOUDY    39  37  93 SE6       30.12F FOG
GOSHEN         LGT RAIN  39  38  96 S8        30.12F FOG
MONTICELLO*    CLOUDY    41  40  96 S6        30.14S FOG
LOGANSPORT*    CLOUDY    41  41 100 CALM      30.15S FOG
ROCHESTER*     CLOUDY    43  43 100 S3        30.15R FOG
WARSAW*        HVY RAIN  37  37 100 CALM      30.14R
AUBURN*        RAIN      36  36 100 E3        30.12F
FORT WAYNE     LGT RAIN  41  41 100 SE5       30.11F FOG
HUNTINGTON*    RAIN      41  40  97 CALM      30.11F
PERU/GRISSOM   DRIZZLE   43  43 100 W5        30.15R FOG
MARION*        LGT RAIN  45  45 100 CALM      30.13R

$$
INZ028>050-231500-
CENTRAL INDIANA

CITY           SKY/WX    TMP DP  RH WIND       PRES   REMARKS
LAFAYETTE      CLOUDY    45  45 100 SW5       30.14F FOG
KOKOMO*        LGT RAIN  47  47 100 W15G21    30.16R FOG
MUNCIE*        LGT RAIN  57  54  89 S15       30.12S FOG
INDIANAPOLIS   LGT RAIN  55  55 100 S15       30.16R FOG

$$
MIZ043>046-050>051-056>058-064>065-071>073-077>080-231500-
SOUTHWEST LOWER MICHIGAN

CITY           SKY/WX    TMP DP  RH WIND       PRES   REMARKS
BATTLE CREEK   CLOUDY    38  37  97 S8        30.10F FOG
BENTON HARBOR  LGT RAIN  41  38  89 S10       30.09S FOG
COLDWATER*     RAIN      38  38 100 SE6       30.12R
HILLSDALE*     RAIN      36  34  93 SE8       30.10F
HOLLAND        LGT RAIN  40  38  93 S7        30.08F FOG
GRAND RAPIDS   LGT RAIN  38  37  97 S5        30.09F FOG
KALAMAZOO      LGT RAIN  39  37  92 S8        30.10F FOG
STURGIS*       DRIZZLE   39  38  99 S7        30.11F
THREE RIVERS*  DRIZZLE   38  38  99 S6        30.12F

$$
OHZ001>008-015>018-024>025-231500-
NORTHWEST OHIO

CITY           SKY/WX    TMP DP  RH WIND       PRES   REMARKS
WAUSEON*       LGT RAIN  37  37 100 SE8       30.13F
DEFIANCE       LGT RAIN  39  37  92 CALM      30.13F FOG
FINDLAY        CLOUDY    46  43  89 SE14      30.11F FOG
TOLEDO EXPRESS LGT RAIN  38  38 100 SE5       30.13F VSB 1
TOLEDO METCALF CLOUDY    39  38  96 E6        30.14F FOG
LIMA           LGT RAIN  48  48 100 S12       30.13F FOG

$$
AND FOR LAKE MICHIGAN COASTAL AND OPEN LAKE BUOY OBSERVATIONS

STATION/POSITION TEMP    WIND        PRES    VSBY  WAVE
                 AIR SEA DIR/SP/G                  HT/PER
                 (F)     (DEG/KT/KT) (MB)    (MI)  (FT/S)
CALUMET HARBOR    41     190/  7/ 11 1018.5F
MICHIGAN CITY     41     140/ 16/ 20   N/A
BURNS HARBOR      41     180/ 11/ 18 1019.6F
SAINT JOSEPH      41     160/  7/ 13 1019.6

$$
&&



USA.gov is the U.S. government's official web portal to all federal, state and local government web resources and services.